contact:dominique.lefevre@mio.osupytheas.fr, maurice.libes@osupytheas.fr, didier.mallarino@osupytheas.fr
Project:EMSO http://www.emso-fr.org/EMSO-France
Depth: 2436.0 m
Title:EMSO Ligure Ouest : Data MII capteur CSTAR
DateTime,Latitude,Longitude,Instrument_Serial,Reference_Counts,Signal_Counts,Corrected_Signal_raw_counts,Calculated_Beam_c_inverse_meters,Internal_thermistor_counts
DateTime,Latitude,Longitude,Instrument_Serial,Reference_Counts,Signal_Counts,Corrected_Signal_raw_counts,Calculated_Beam_c_inverse_meters,Internal_thermistor_counts
2021-06-08T00:00:01,42.805,6.029,CST-1368DR,5504,7675,14975,0.168,551
2021-06-08T00:03:03,42.805,6.029,CST-1368DR,5504,7677,14978,0.167,551
2021-06-08T00:06:04,42.805,6.029,CST-1368DR,5504,7676,14977,0.167,551
2021-06-08T00:09:06,42.805,6.029,CST-1368DR,5504,7678,14981,0.166,551
2021-06-08T00:12:08,42.805,6.029,CST-1368DR,5504,7676,14977,0.167,551
2021-06-08T00:15:09,42.805,6.029,CST-1368DR,5504,7677,14978,0.167,551
2021-06-08T00:18:11,42.805,6.029,CST-1368DR,5504,7677,14978,0.167,551
2021-06-08T00:21:12,42.805,6.029,CST-1368DR,5504,7673,14971,0.169,551
2021-06-08T00:24:14,42.805,6.029,CST-1368DR,5504,7674,14973,0.168,551
2021-06-08T00:27:16,42.805,6.029,CST-1368DR,5504,7677,14978,0.167,551
2021-06-08T00:30:17,42.805,6.029,CST-1368DR,5504,7677,14979,0.167,551
2021-06-08T00:33:19,42.805,6.029,CST-1368DR,5504,7675,14975,0.168,551
2021-06-08T00:36:20,42.805,6.029,CST-1368DR,5504,7676,14976,0.167,551
2021-06-08T00:39:22,42.805,6.029,CST-1368DR,5504,7675,14975,0.168,551
2021-06-08T00:42:23,42.805,6.029,CST-1368DR,5504,7676,14976,0.167,551
2021-06-08T00:45:25,42.805,6.029,CST-1368DR,5504,7676,14976,0.167,551
2021-06-08T00:48:27,42.805,6.029,CST-1368DR,5504,7676,14976,0.167,551
2021-06-08T00:51:28,42.805,6.029,CST-1368DR,5504,7676,14976,0.167,551
2021-06-08T00:54:30,42.805,6.029,CST-1368DR,5504,7677,14978,0.167,551
2021-06-08T00:57:31,42.805,6.029,CST-1368DR,5504,7675,14974,0.168,551
2021-06-08T01:00:33,42.805,6.029,CST-1368DR,5504,7676,14977,0.167,551
2021-06-08T01:03:34,42.805,6.029,CST-1368DR,5504,7676,14977,0.167,551
2021-06-08T01:06:36,42.805,6.029,CST-1368DR,5504,7677,14978,0.167,551
2021-06-08T01:09:38,42.805,6.029,CST-1368DR,5504,7676,14977,0.167,551
2021-06-08T01:12:39,42.805,6.029,CST-1368DR,5504,7676,14976,0.167,551
2021-06-08T01:15:41,42.805,6.029,CST-1368DR,5504,7677,14978,0.167,551
2021-06-08T01:18:42,42.805,6.029,CST-1368DR,5504,7676,14977,0.167,551
2021-06-08T01:21:44,42.805,6.029,CST-1368DR,5504,7674,14972,0.168,551
2021-06-08T01:24:46,42.805,6.029,CST-1368DR,5504,7676,14976,0.167,551
2021-06-08T01:27:47,42.805,6.029,CST-1368DR,5504,7675,14975,0.168,551
2021-06-08T01:30:49,42.805,6.029,CST-1368DR,5504,7675,14974,0.168,551
2021-06-08T01:33:50,42.805,6.029,CST-1368DR,5504,7675,14974,0.168,551
2021-06-08T01:36:52,42.805,6.029,CST-1368DR,5504,7673,14971,0.169,551
2021-06-08T01:39:53,42.805,6.029,CST-1368DR,5504,7675,14975,0.168,551
2021-06-08T01:42:55,42.805,6.029,CST-1368DR,5504,7676,14976,0.167,551
2021-06-08T01:45:57,42.805,6.029,CST-1368DR,5504,7675,14975,0.168,551
2021-06-08T01:48:58,42.805,6.029,CST-1368DR,5504,7676,14976,0.167,551
2021-06-08T01:52:00,42.805,6.029,CST-1368DR,5504,7672,14969,0.169,551
2021-06-08T01:55:01,42.805,6.029,CST-1368DR,5504,7675,14974,0.168,551
2021-06-08T01:58:03,42.805,6.029,CST-1368DR,5504,7675,14974,0.168,551
2021-06-08T02:01:05,42.805,6.029,CST-1368DR,5504,7675,14974,0.168,551
2021-06-08T02:04:06,42.805,6.029,CST-1368DR,5504,7670,14965,0.170,551
2021-06-08T02:07:08,42.805,6.029,CST-1368DR,5504,7674,14973,0.168,551
2021-06-08T02:10:09,42.805,6.029,CST-1368DR,5504,7675,14975,0.168,551
2021-06-08T02:13:11,42.805,6.029,CST-1368DR,5504,7676,14976,0.167,551
2021-06-08T02:16:12,42.805,6.029,CST-1368DR,5504,7676,14976,0.167,551
2021-06-08T02:19:14,42.805,6.029,CST-1368DR,5504,7674,14972,0.168,550
2021-06-08T02:22:16,42.805,6.029,CST-1368DR,5504,7675,14975,0.168,551
2021-06-08T02:25:17,42.805,6.029,CST-1368DR,5504,7675,14975,0.168,551
2021-06-08T02:28:19,42.805,6.029,CST-1368DR,5504,7676,14977,0.167,551
2021-06-08T02:31:20,42.805,6.029,CST-1368DR,5504,7674,14973,0.168,551
2021-06-08T02:34:22,42.805,6.029,CST-1368DR,5504,7672,14969,0.169,551
2021-06-08T02:37:23,42.805,6.029,CST-1368DR,5504,7676,14976,0.167,551
2021-06-08T02:40:25,42.805,6.029,CST-1368DR,5504,7674,14972,0.168,551
2021-06-08T02:43:27,42.805,6.029,CST-1368DR,5504,7676,14976,0.167,551
2021-06-08T02:46:28,42.805,6.029,CST-1368DR,5504,7676,14976,0.167,551
2021-06-08T02:49:30,42.805,6.029,CST-1368DR,5504,7676,14977,0.167,551
2021-06-08T02:52:31,42.805,6.029,CST-1368DR,5504,7675,14975,0.168,551
2021-06-08T02:55:33,42.805,6.029,CST-1368DR,5504,7676,14976,0.167,551
2021-06-08T02:58:35,42.805,6.029,CST-1368DR,5504,7677,14978,0.167,551
2021-06-08T03:01:36,42.805,6.029,CST-1368DR,5504,7677,14978,0.167,551
2021-06-08T03:04:38,42.805,6.029,CST-1368DR,5504,7676,14977,0.167,551
2021-06-08T03:07:39,42.805,6.029,CST-1368DR,5504,7676,14977,0.167,551
2021-06-08T03:10:41,42.805,6.029,CST-1368DR,5504,7675,14975,0.168,551
2021-06-08T03:13:42,42.805,6.029,CST-1368DR,5504,7676,14977,0.167,551
2021-06-08T03:16:44,42.805,6.029,CST-1368DR,5504,7676,14976,0.167,551
2021-06-08T03:19:46,42.805,6.029,CST-1368DR,5504,7676,14976,0.167,551
2021-06-08T03:22:47,42.805,6.029,CST-1368DR,5504,7676,14976,0.167,551
2021-06-08T03:25:49,42.805,6.029,CST-1368DR,5504,7677,14978,0.167,551
2021-06-08T03:28:50,42.805,6.029,CST-1368DR,5504,7677,14978,0.167,551
2021-06-08T03:31:52,42.805,6.029,CST-1368DR,5504,7676,14976,0.167,551
2021-06-08T03:34:54,42.805,6.029,CST-1368DR,5504,7678,14981,0.166,551
2021-06-08T03:37:55,42.805,6.029,CST-1368DR,5504,7677,14978,0.167,551
2021-06-08T03:40:57,42.805,6.029,CST-1368DR,5504,7677,14978,0.167,551
2021-06-08T03:43:58,42.805,6.029,CST-1368DR,5504,7676,14977,0.167,551
2021-06-08T03:47:00,42.805,6.029,CST-1368DR,5504,7679,14982,0.166,551
2021-06-08T03:50:01,42.805,6.029,CST-1368DR,5504,7677,14978,0.167,551
2021-06-08T03:53:03,42.805,6.029,CST-1368DR,5504,7678,14981,0.166,551
2021-06-08T03:56:05,42.805,6.029,CST-1368DR,5504,7678,14981,0.166,551
2021-06-08T03:59:06,42.805,6.029,CST-1368DR,5504,7677,14978,0.167,551
2021-06-08T04:02:08,42.805,6.029,CST-1368DR,5504,7676,14977,0.167,551
2021-06-08T04:05:09,42.805,6.029,CST-1368DR,5504,7678,14981,0.166,551
2021-06-08T04:08:11,42.805,6.029,CST-1368DR,5504,7677,14978,0.167,551
2021-06-08T04:11:13,42.805,6.029,CST-1368DR,5504,7677,14979,0.167,551
2021-06-08T04:14:14,42.805,6.029,CST-1368DR,5504,7679,14983,0.166,550
2021-06-08T04:17:16,42.805,6.029,CST-1368DR,5504,7678,14981,0.166,551
2021-06-08T04:20:17,42.805,6.029,CST-1368DR,5504,7679,14982,0.166,551
2021-06-08T04:23:19,42.805,6.029,CST-1368DR,5504,7680,14984,0.165,551
2021-06-08T04:26:20,42.805,6.029,CST-1368DR,5504,7678,14980,0.166,551
2021-06-08T04:29:22,42.805,6.029,CST-1368DR,5504,7676,14977,0.167,551
2021-06-08T04:32:24,42.805,6.029,CST-1368DR,5504,7679,14982,0.166,551
2021-06-08T04:35:25,42.805,6.029,CST-1368DR,5504,7677,14978,0.167,551
2021-06-08T04:38:27,42.805,6.029,CST-1368DR,5504,7679,14982,0.166,551
2021-06-08T04:41:28,42.805,6.029,CST-1368DR,5504,7676,14976,0.167,551
2021-06-08T04:44:30,42.805,6.029,CST-1368DR,5504,7678,14981,0.166,551
2021-06-08T04:47:31,42.805,6.029,CST-1368DR,5504,7676,14977,0.167,551
2021-06-08T04:50:33,42.805,6.029,CST-1368DR,5504,7676,14977,0.167,551
2021-06-08T04:53:35,42.805,6.029,CST-1368DR,5504,7678,14981,0.166,551
2021-06-08T04:56:36,42.805,6.029,CST-1368DR,5503,7678,14983,0.166,551
2021-06-08T04:59:38,42.805,6.029,CST-1368DR,5503,7676,14980,0.166,551
2021-06-08T05:02:39,42.805,6.029,CST-1368DR,5503,7677,14981,0.166,551
2021-06-08T05:05:41,42.805,6.029,CST-1368DR,5503,7678,14983,0.166,551
2021-06-08T05:08:43,42.805,6.029,CST-1368DR,5503,7678,14983,0.166,551
2021-06-08T05:11:44,42.805,6.029,CST-1368DR,5504,7678,14981,0.166,551
2021-06-08T05:14:46,42.805,6.029,CST-1368DR,5503,7676,14979,0.167,551
2021-06-08T05:17:47,42.805,6.029,CST-1368DR,5504,7678,14981,0.166,551
2021-06-08T05:20:49,42.805,6.029,CST-1368DR,5504,7676,14977,0.167,551
2021-06-08T05:23:50,42.805,6.029,CST-1368DR,5503,7679,14984,0.165,551
2021-06-08T05:26:52,42.805,6.029,CST-1368DR,5504,7678,14981,0.166,551
2021-06-08T05:29:54,42.805,6.029,CST-1368DR,5503,7678,14984,0.165,551
2021-06-08T05:32:55,42.805,6.029,CST-1368DR,5504,7679,14983,0.166,551
2021-06-08T05:35:57,42.805,6.029,CST-1368DR,5503,7679,14985,0.165,551
2021-06-08T05:38:58,42.805,6.029,CST-1368DR,5503,7678,14984,0.165,550
2021-06-08T05:42:00,42.805,6.029,CST-1368DR,5503,7679,14985,0.165,551
2021-06-08T05:45:02,42.805,6.029,CST-1368DR,5503,7678,14983,0.166,551
2021-06-08T05:48:03,42.805,6.029,CST-1368DR,5504,7678,14981,0.166,551
2021-06-08T05:51:05,42.805,6.029,CST-1368DR,5503,7677,14981,0.166,551
2021-06-08T05:54:06,42.805,6.029,CST-1368DR,5504,7678,14981,0.166,551
2021-06-08T05:57:08,42.805,6.029,CST-1368DR,5503,7677,14981,0.166,551
2021-06-08T06:00:09,42.805,6.029,CST-1368DR,5503,7678,14983,0.166,551
2021-06-08T06:03:11,42.805,6.029,CST-1368DR,5503,7678,14984,0.165,551
2021-06-08T06:06:13,42.805,6.029,CST-1368DR,5503,7677,14980,0.166,551
2021-06-08T06:09:14,42.805,6.029,CST-1368DR,5503,7677,14981,0.166,551
2021-06-08T06:12:16,42.805,6.029,CST-1368DR,5503,7678,14983,0.166,551
2021-06-08T06:15:17,42.805,6.029,CST-1368DR,5503,7679,14984,0.165,551
2021-06-08T06:18:19,42.805,6.029,CST-1368DR,5503,7678,14983,0.166,551
2021-06-08T06:21:20,42.805,6.029,CST-1368DR,5503,7678,14984,0.165,551
2021-06-08T06:24:22,42.805,6.029,CST-1368DR,5503,7677,14982,0.166,551
2021-06-08T06:27:24,42.805,6.029,CST-1368DR,5503,7679,14986,0.165,551
2021-06-08T06:30:25,42.805,6.029,CST-1368DR,5503,7679,14985,0.165,551
2021-06-08T06:33:27,42.805,6.029,CST-1368DR,5503,7679,14985,0.165,551
2021-06-08T06:36:28,42.805,6.029,CST-1368DR,5503,7679,14984,0.165,551
2021-06-08T06:39:30,42.805,6.029,CST-1368DR,5503,7677,14982,0.166,551
2021-06-08T06:42:32,42.805,6.029,CST-1368DR,5503,7677,14981,0.166,551
2021-06-08T06:45:33,42.805,6.029,CST-1368DR,5503,7676,14980,0.166,551
2021-06-08T06:48:35,42.805,6.029,CST-1368DR,5503,7679,14984,0.165,551
2021-06-08T06:51:36,42.805,6.029,CST-1368DR,5503,7677,14982,0.166,551
2021-06-08T06:54:38,42.805,6.029,CST-1368DR,5503,7679,14985,0.165,551
2021-06-08T06:57:39,42.805,6.029,CST-1368DR,5503,7678,14983,0.166,551
2021-06-08T07:00:41,42.805,6.029,CST-1368DR,5503,7678,14984,0.165,551
2021-06-08T07:03:43,42.805,6.029,CST-1368DR,5503,7678,14983,0.166,551
2021-06-08T07:06:44,42.805,6.029,CST-1368DR,5503,7677,14981,0.166,551
2021-06-08T07:09:46,42.805,6.029,CST-1368DR,5503,7676,14979,0.167,551
2021-06-08T07:12:47,42.805,6.029,CST-1368DR,5503,7678,14983,0.166,551
2021-06-08T07:15:49,42.805,6.029,CST-1368DR,5503,7677,14981,0.166,551
2021-06-08T07:18:50,42.805,6.029,CST-1368DR,5503,7677,14981,0.166,551
2021-06-08T07:21:52,42.805,6.029,CST-1368DR,5503,7677,14982,0.166,551
2021-06-08T07:24:54,42.805,6.029,CST-1368DR,5503,7678,14984,0.165,550
2021-06-08T07:27:55,42.805,6.029,CST-1368DR,5503,7677,14981,0.166,551
2021-06-08T07:30:57,42.805,6.029,CST-1368DR,5503,7678,14984,0.165,551
2021-06-08T07:33:58,42.805,6.029,CST-1368DR,5503,7678,14983,0.166,551
2021-06-08T07:37:00,42.805,6.029,CST-1368DR,5503,7677,14981,0.166,551
2021-06-08T07:40:02,42.805,6.029,CST-1368DR,5503,7678,14983,0.166,551
2021-06-08T07:43:03,42.805,6.029,CST-1368DR,5503,7678,14983,0.166,551
2021-06-08T07:46:05,42.805,6.029,CST-1368DR,5503,7677,14981,0.166,551
2021-06-08T07:49:06,42.805,6.029,CST-1368DR,5503,7677,14982,0.166,551
2021-06-08T07:52:08,42.805,6.029,CST-1368DR,5503,7677,14982,0.166,551
2021-06-08T07:55:09,42.805,6.029,CST-1368DR,5503,7679,14984,0.165,551
2021-06-08T07:58:11,42.805,6.029,CST-1368DR,5503,7678,14983,0.166,551
2021-06-08T08:01:13,42.805,6.029,CST-1368DR,5503,7679,14984,0.165,551
2021-06-08T08:04:14,42.805,6.029,CST-1368DR,5503,7678,14984,0.165,551
2021-06-08T08:07:16,42.805,6.029,CST-1368DR,5503,7677,14981,0.166,551
2021-06-08T08:10:17,42.805,6.029,CST-1368DR,5503,7677,14982,0.166,551
2021-06-08T08:13:19,42.805,6.029,CST-1368DR,5503,7678,14983,0.166,551
2021-06-08T08:16:21,42.805,6.029,CST-1368DR,5503,7678,14983,0.166,551
2021-06-08T08:19:22,42.805,6.029,CST-1368DR,5503,7678,14983,0.166,551
2021-06-08T08:22:24,42.805,6.029,CST-1368DR,5503,7678,14984,0.165,551
2021-06-08T08:25:25,42.805,6.029,CST-1368DR,5503,7677,14980,0.166,551
2021-06-08T08:28:27,42.805,6.029,CST-1368DR,5503,7677,14980,0.166,551
2021-06-08T08:31:28,42.805,6.029,CST-1368DR,5503,7676,14978,0.167,551
2021-06-08T08:34:30,42.805,6.029,CST-1368DR,5503,7677,14981,0.166,551
2021-06-08T08:37:32,42.805,6.029,CST-1368DR,5503,7677,14980,0.166,551
2021-06-08T08:40:33,42.805,6.029,CST-1368DR,5503,7678,14984,0.165,551
2021-06-08T08:43:35,42.805,6.029,CST-1368DR,5503,7676,14980,0.166,551
2021-06-08T08:46:36,42.805,6.029,CST-1368DR,5503,7679,14985,0.165,550
2021-06-08T08:49:38,42.805,6.029,CST-1368DR,5503,7679,14984,0.165,551
2021-06-08T08:52:39,42.805,6.029,CST-1368DR,5503,7677,14981,0.166,551
2021-06-08T08:55:41,42.805,6.029,CST-1368DR,5503,7676,14980,0.166,551
2021-06-08T08:58:43,42.805,6.029,CST-1368DR,5503,7677,14981,0.166,551
2021-06-08T09:01:44,42.805,6.029,CST-1368DR,5503,7676,14980,0.166,551
2021-06-08T09:04:46,42.805,6.029,CST-1368DR,5503,7676,14979,0.167,551
2021-06-08T09:07:47,42.805,6.029,CST-1368DR,5503,7677,14981,0.166,551
2021-06-08T09:10:49,42.805,6.029,CST-1368DR,5503,7677,14981,0.166,551
2021-06-08T09:13:51,42.805,6.029,CST-1368DR,5503,7676,14979,0.167,551
2021-06-08T09:16:52,42.805,6.029,CST-1368DR,5503,7677,14981,0.166,551
2021-06-08T09:19:54,42.805,6.029,CST-1368DR,5503,7676,14980,0.166,551
2021-06-08T09:22:55,42.805,6.029,CST-1368DR,5503,7675,14977,0.167,551
2021-06-08T09:25:57,42.805,6.029,CST-1368DR,5503,7677,14981,0.166,551
2021-06-08T09:28:58,42.805,6.029,CST-1368DR,5503,7676,14980,0.166,551
2021-06-08T09:32:00,42.805,6.029,CST-1368DR,5503,7677,14982,0.166,551
2021-06-08T09:35:02,42.805,6.029,CST-1368DR,5503,7678,14983,0.166,551
2021-06-08T09:38:03,42.805,6.029,CST-1368DR,5503,7677,14981,0.166,551
2021-06-08T09:41:05,42.805,6.029,CST-1368DR,5503,7677,14981,0.166,551
2021-06-08T09:44:06,42.805,6.029,CST-1368DR,5503,7672,14971,0.169,551
2021-06-08T09:47:08,42.805,6.029,CST-1368DR,5503,7675,14977,0.167,551
2021-06-08T09:50:09,42.805,6.029,CST-1368DR,5503,7676,14979,0.167,551
2021-06-08T09:53:11,42.805,6.029,CST-1368DR,5502,7676,14982,0.166,551
2021-06-08T09:56:13,42.805,6.029,CST-1368DR,5503,7677,14981,0.166,551
2021-06-08T09:59:14,42.805,6.029,CST-1368DR,5503,7677,14981,0.166,551
2021-06-08T10:02:16,42.805,6.029,CST-1368DR,5503,7677,14980,0.166,551
2021-06-08T10:05:17,42.805,6.029,CST-1368DR,5503,7678,14983,0.166,551
2021-06-08T10:08:19,42.805,6.029,CST-1368DR,5503,7678,14983,0.166,550
2021-06-08T10:11:21,42.805,6.029,CST-1368DR,5502,7675,14980,0.166,551
2021-06-08T10:14:22,42.805,6.029,CST-1368DR,5502,7676,14982,0.166,551
2021-06-08T10:17:24,42.805,6.029,CST-1368DR,5502,7677,14983,0.166,551
2021-06-08T10:20:25,42.805,6.029,CST-1368DR,5502,7677,14983,0.166,551
2021-06-08T10:23:27,42.805,6.029,CST-1368DR,5502,7677,14983,0.166,551
2021-06-08T10:26:28,42.805,6.029,CST-1368DR,5502,7677,14983,0.166,551
2021-06-08T10:29:30,42.805,6.029,CST-1368DR,5502,7674,14977,0.167,551
2021-06-08T10:32:32,42.805,6.029,CST-1368DR,5502,7675,14980,0.166,551
2021-06-08T10:35:33,42.805,6.029,CST-1368DR,5501,7675,14982,0.166,551
2021-06-08T10:38:35,42.805,6.029,CST-1368DR,5502,7675,14980,0.166,551
2021-06-08T10:41:36,42.805,6.029,CST-1368DR,5501,7675,14982,0.166,551
2021-06-08T10:44:38,42.805,6.029,CST-1368DR,5501,7674,14980,0.166,551
2021-06-08T10:47:40,42.805,6.029,CST-1368DR,5501,7675,14981,0.166,551
2021-06-08T10:50:41,42.805,6.029,CST-1368DR,5501,7676,14984,0.165,551
2021-06-08T10:53:43,42.805,6.029,CST-1368DR,5501,7676,14984,0.165,551
2021-06-08T10:56:44,42.805,6.029,CST-1368DR,5501,7675,14981,0.166,551
2021-06-08T10:59:46,42.805,6.029,CST-1368DR,5501,7676,14984,0.165,551
2021-06-08T11:02:47,42.805,6.029,CST-1368DR,5501,7676,14984,0.165,551
2021-06-08T11:05:49,42.805,6.029,CST-1368DR,5501,7676,14983,0.166,551
2021-06-08T11:08:51,42.805,6.029,CST-1368DR,5501,7674,14981,0.166,551
2021-06-08T11:11:52,42.805,6.029,CST-1368DR,5501,7676,14984,0.165,551
2021-06-08T11:14:54,42.805,6.029,CST-1368DR,5501,7675,14982,0.166,551
2021-06-08T11:17:55,42.805,6.029,CST-1368DR,5501,7676,14984,0.165,551
2021-06-08T11:20:57,42.805,6.029,CST-1368DR,5501,7676,14984,0.165,551
2021-06-08T11:23:58,42.805,6.029,CST-1368DR,5501,7676,14984,0.165,550
2021-06-08T11:27:00,42.805,6.029,CST-1368DR,5501,7676,14984,0.165,551
2021-06-08T11:30:02,42.805,6.029,CST-1368DR,5501,7676,14984,0.165,551
2021-06-08T11:33:03,42.805,6.029,CST-1368DR,5501,7672,14977,0.167,551
2021-06-08T11:36:05,42.805,6.029,CST-1368DR,5501,7674,14980,0.166,551
2021-06-08T11:39:06,42.805,6.029,CST-1368DR,5501,7676,14983,0.166,551
2021-06-08T11:42:08,42.805,6.029,CST-1368DR,5501,7676,14983,0.166,551
2021-06-08T11:45:10,42.805,6.029,CST-1368DR,5501,7676,14983,0.166,551
2021-06-08T11:48:11,42.805,6.029,CST-1368DR,5501,7676,14983,0.166,551
2021-06-08T11:51:13,42.805,6.029,CST-1368DR,5501,7676,14984,0.165,551
2021-06-08T11:54:14,42.805,6.029,CST-1368DR,5501,7676,14984,0.165,551
2021-06-08T11:57:16,42.805,6.029,CST-1368DR,5501,7676,14984,0.165,551
2021-06-08T12:00:17,42.805,6.029,CST-1368DR,5501,7676,14983,0.166,551
2021-06-08T12:03:19,42.805,6.029,CST-1368DR,5501,7676,14984,0.165,551
2021-06-08T12:06:21,42.805,6.029,CST-1368DR,5501,7676,14984,0.165,551
2021-06-08T12:09:22,42.805,6.029,CST-1368DR,5501,7675,14983,0.166,551
2021-06-08T12:12:24,42.805,6.029,CST-1368DR,5501,7675,14982,0.166,551
2021-06-08T12:15:25,42.805,6.029,CST-1368DR,5501,7676,14984,0.165,551
2021-06-08T12:18:27,42.805,6.029,CST-1368DR,5501,7675,14983,0.166,551
2021-06-08T12:21:29,42.805,6.029,CST-1368DR,5501,7675,14982,0.166,551
2021-06-08T12:24:30,42.805,6.029,CST-1368DR,5501,7675,14983,0.166,551
2021-06-08T12:27:32,42.805,6.029,CST-1368DR,5501,7675,14982,0.166,551
2021-06-08T12:30:33,42.805,6.029,CST-1368DR,5501,7675,14983,0.166,551
2021-06-08T12:33:35,42.805,6.029,CST-1368DR,5501,7676,14984,0.165,551
2021-06-08T12:36:36,42.805,6.029,CST-1368DR,5501,7676,14983,0.166,551
2021-06-08T12:39:38,42.805,6.029,CST-1368DR,5501,7676,14984,0.165,550
2021-06-08T12:42:40,42.805,6.029,CST-1368DR,5501,7676,14984,0.165,551
2021-06-08T12:45:41,42.805,6.029,CST-1368DR,5501,7675,14982,0.166,551
2021-06-08T12:48:43,42.805,6.029,CST-1368DR,5501,7676,14984,0.165,551
2021-06-08T12:51:44,42.805,6.029,CST-1368DR,5501,7676,14984,0.165,551
2021-06-08T12:54:46,42.805,6.029,CST-1368DR,5501,7676,14983,0.166,551
2021-06-08T12:57:47,42.805,6.029,CST-1368DR,5501,7676,14984,0.165,551
2021-06-08T13:00:49,42.805,6.029,CST-1368DR,5501,7671,14974,0.168,551
2021-06-08T13:03:51,42.805,6.029,CST-1368DR,5501,7676,14984,0.165,551
2021-06-08T13:06:52,42.805,6.029,CST-1368DR,5501,7676,14984,0.165,551
2021-06-08T13:09:54,42.805,6.029,CST-1368DR,5501,7675,14981,0.166,551
2021-06-08T13:12:55,42.805,6.029,CST-1368DR,5501,7676,14983,0.166,551
2021-06-08T13:15:57,42.805,6.029,CST-1368DR,5501,7675,14982,0.166,551
2021-06-08T13:18:59,42.805,6.029,CST-1368DR,5501,7675,14983,0.166,551
2021-06-08T13:22:00,42.805,6.029,CST-1368DR,5501,7675,14983,0.166,551
2021-06-08T13:25:02,42.805,6.029,CST-1368DR,5501,7676,14984,0.165,551
2021-06-08T13:28:03,42.805,6.029,CST-1368DR,5501,7676,14983,0.166,551
2021-06-08T13:31:05,42.805,6.029,CST-1368DR,5501,7675,14982,0.166,551
2021-06-08T13:34:06,42.805,6.029,CST-1368DR,5501,7675,14982,0.166,551
2021-06-08T13:37:08,42.805,6.029,CST-1368DR,5501,7675,14982,0.166,551
2021-06-08T13:40:10,42.805,6.029,CST-1368DR,5501,7674,14981,0.166,551
2021-06-08T13:43:11,42.805,6.029,CST-1368DR,5501,7675,14982,0.166,551
2021-06-08T13:46:13,42.805,6.029,CST-1368DR,5501,7675,14982,0.166,551
2021-06-08T13:49:14,42.805,6.029,CST-1368DR,5501,7674,14981,0.166,550
2021-06-08T13:52:16,42.805,6.029,CST-1368DR,5501,7675,14983,0.166,551
2021-06-08T13:55:18,42.805,6.029,CST-1368DR,5501,7675,14982,0.166,551
2021-06-08T13:58:19,42.805,6.029,CST-1368DR,5501,7675,14983,0.166,551
2021-06-08T14:01:21,42.805,6.029,CST-1368DR,5501,7675,14982,0.166,551
2021-06-08T14:04:22,42.805,6.029,CST-1368DR,5501,7675,14981,0.166,551
2021-06-08T14:07:24,42.805,6.029,CST-1368DR,5501,7674,14981,0.166,551
2021-06-08T14:10:25,42.805,6.029,CST-1368DR,5501,7675,14982,0.166,551
2021-06-08T14:13:27,42.805,6.029,CST-1368DR,5501,7674,14980,0.166,551
2021-06-08T14:16:29,42.805,6.029,CST-1368DR,5501,7675,14981,0.166,551
2021-06-08T14:19:30,42.805,6.029,CST-1368DR,5501,7673,14979,0.167,551
2021-06-08T14:22:32,42.805,6.029,CST-1368DR,5501,7674,14980,0.166,551
2021-06-08T14:25:33,42.805,6.029,CST-1368DR,5501,7674,14981,0.166,551
2021-06-08T14:28:35,42.805,6.029,CST-1368DR,5501,7674,14980,0.166,551
2021-06-08T14:31:36,42.805,6.029,CST-1368DR,5501,7674,14981,0.166,551
2021-06-08T14:34:38,42.805,6.029,CST-1368DR,5501,7674,14980,0.166,551
2021-06-08T14:37:40,42.805,6.029,CST-1368DR,5501,7675,14981,0.166,550
2021-06-08T14:40:41,42.805,6.029,CST-1368DR,5501,7675,14982,0.166,551
2021-06-08T14:43:43,42.805,6.029,CST-1368DR,5501,7675,14982,0.166,551
2021-06-08T14:46:44,42.805,6.029,CST-1368DR,5501,7675,14981,0.166,551
2021-06-08T14:49:46,42.805,6.029,CST-1368DR,5501,7675,14981,0.166,551
2021-06-08T14:52:48,42.805,6.029,CST-1368DR,5501,7673,14978,0.167,551
2021-06-08T14:55:49,42.805,6.029,CST-1368DR,5501,7673,14978,0.167,551
2021-06-08T14:58:51,42.805,6.029,CST-1368DR,5501,7673,14978,0.167,551
2021-06-08T15:01:52,42.805,6.029,CST-1368DR,5501,7674,14980,0.166,551
2021-06-08T15:04:54,42.805,6.029,CST-1368DR,5501,7674,14981,0.166,551
2021-06-08T15:07:55,42.805,6.029,CST-1368DR,5501,7673,14979,0.167,551
2021-06-08T15:10:57,42.805,6.029,CST-1368DR,5501,7674,14980,0.166,551
2021-06-08T15:13:59,42.805,6.029,CST-1368DR,5501,7674,14980,0.166,551
2021-06-08T15:17:00,42.805,6.029,CST-1368DR,5501,7674,14981,0.166,551
2021-06-08T15:20:02,42.805,6.029,CST-1368DR,5501,7674,14980,0.166,551
2021-06-08T15:23:03,42.805,6.029,CST-1368DR,5501,7674,14980,0.166,551
2021-06-08T15:26:05,42.805,6.029,CST-1368DR,5501,7674,14981,0.166,551
2021-06-08T15:29:07,42.805,6.029,CST-1368DR,5501,7673,14979,0.167,551
2021-06-08T15:32:08,42.805,6.029,CST-1368DR,5501,7672,14977,0.167,551
2021-06-08T15:35:10,42.805,6.029,CST-1368DR,5501,7673,14979,0.167,551
2021-06-08T15:38:11,42.805,6.029,CST-1368DR,5501,7674,14980,0.166,551
2021-06-08T15:41:13,42.805,6.029,CST-1368DR,5501,7673,14979,0.167,551
2021-06-08T15:44:14,42.805,6.029,CST-1368DR,5501,7674,14980,0.166,551
2021-06-08T15:47:16,42.805,6.029,CST-1368DR,5501,7674,14980,0.166,551
2021-06-08T15:50:18,42.805,6.029,CST-1368DR,5501,7673,14979,0.167,551
2021-06-08T15:53:19,42.805,6.029,CST-1368DR,5501,7671,14975,0.168,551
2021-06-08T15:56:21,42.805,6.029,CST-1368DR,5501,7673,14978,0.167,551
2021-06-08T15:59:22,42.805,6.029,CST-1368DR,5501,7674,14980,0.166,551
2021-06-08T16:02:24,42.805,6.029,CST-1368DR,5501,7674,14980,0.166,551
2021-06-08T16:05:25,42.805,6.029,CST-1368DR,5501,7674,14980,0.166,551
2021-06-08T16:08:27,42.805,6.029,CST-1368DR,5501,7673,14979,0.167,551
2021-06-08T16:11:29,42.805,6.029,CST-1368DR,5501,7673,14979,0.167,551
2021-06-08T16:14:30,42.805,6.029,CST-1368DR,5501,7673,14978,0.167,551
2021-06-08T16:17:32,42.805,6.029,CST-1368DR,5501,7675,14981,0.166,551
2021-06-08T16:20:33,42.805,6.029,CST-1368DR,5501,7674,14981,0.166,551
2021-06-08T16:23:35,42.805,6.029,CST-1368DR,5501,7674,14980,0.166,551
2021-06-08T16:26:37,42.805,6.029,CST-1368DR,5501,7674,14981,0.166,551
2021-06-08T16:29:38,42.805,6.029,CST-1368DR,5501,7673,14979,0.167,551
2021-06-08T16:32:40,42.805,6.029,CST-1368DR,5501,7674,14981,0.166,551
2021-06-08T16:35:41,42.805,6.029,CST-1368DR,5501,7675,14981,0.166,551
2021-06-08T16:38:43,42.805,6.029,CST-1368DR,5501,7674,14980,0.166,551
2021-06-08T16:41:44,42.805,6.029,CST-1368DR,5501,7675,14981,0.166,551
2021-06-08T16:44:46,42.805,6.029,CST-1368DR,5501,7675,14981,0.166,551
2021-06-08T16:47:48,42.805,6.029,CST-1368DR,5501,7674,14980,0.166,551
2021-06-08T16:50:49,42.805,6.029,CST-1368DR,5501,7675,14982,0.166,551